Reno, NV

8:57 PM PDT on April 28, 2017 (GMT -0700)
Reno-Tahoe International

Weather History for KRNO - March, 2013

Change the Weather History Date:

Tuesday, March 5, 2013

  Actual Average Record
Temperature  
Mean Temperature 47 °F 44 °F  
Max Temperature 62 °F 56 °F 79 °F (1972)
Min Temperature 31 °F 32 °F 0 °F (1971)
Degree Days  
Heating Degree Days 18 21  
Month to date heating degree days 82 107  
Since 1 July heating degree days 3566 3745  
Cooling Degree Days 0 0  
Month to date cooling degree days 0 0  
Year to date cooling degree days 0 0  
Moisture  
Dew Point 26 °F    
Average Humidity 54    
Maximum Humidity 85    
Minimum Humidity 22    
Precipitation  
Precipitation 0.00 in 0.04 in 0.44 in (1994)
Month to date precipitation 0.11 0.18  
Year to date precipitation 0.23 2.23  
Snow  
Snow 0.00 in 0.10 in 2.30 in (1971)
Month to date snowfall 0.0 0.6  
Since 1 July snowfall 9.3 19.6  
Snow Depth 0.00 in    
Sea Level Pressure  
Sea Level Pressure 29.82 in    
Wind  
Wind Speed 12 mph (South)    
Max Wind Speed 40 mph    
Max Gust Speed 48 mph    
Visibility 10 miles    
Events      
T = Trace of Precipitation, MM = Missing Value Source: NWS Daily Summary

Daily Weather History Graph

Daily Weather History Graph

Search for Another Location

Airport or City:

Trip Planner

Search our weather history database for the weather conditions in past years. The results will help you decide how hot, cold, wet, or windy it might be!

Date:

Astronomy

Mar. 05, 2013 Rise Set
Actual Time 6:25 AM PST 5:56 PM PST
Civil Twilight 5:58 AM PST 6:22 PM PST
Nautical Twilight 5:27 AM PST 6:54 PM PST
Astronomical Twilight 4:56 AM PST 7:25 PM PST
Moon 1:41 AM PST (3/5) 11:41 AM PST (3/5)
Length of Visible Light 12h 24m
Length of Day
11h 30m
Last Quarter, 39% of the Moon is Illuminated
Mar 5
Last Quarter
Mar 11
New
Mar 19
First Quarter
Mar 27
Full
Apr 2
Last Quarter

Hourly Weather History & Observations

Time (PST) Temp. Windchill Dew Point Humidity Pressure Visibility Wind Dir Wind Speed Gust Speed Precip Events Conditions
12:55 AM 39.9 °F - 30.0 °F 68% 29.98 in 10.0 mi Calm Calm - N/A   Clear
1:55 AM 37.0 °F - 28.9 °F 73% 29.96 in 10.0 mi Calm Calm - N/A   Clear
2:55 AM 35.1 °F - 28.9 °F 78% 29.95 in 10.0 mi Calm Calm - N/A   Clear
3:55 AM 35.1 °F - 28.9 °F 78% 29.93 in 10.0 mi Calm Calm - N/A   Clear
4:55 AM 32.0 °F 28.7 °F 28.0 °F 85% 29.94 in 10.0 mi SSE 3.5 mph - N/A   Clear
5:55 AM 32.0 °F - 27.0 °F 82% 29.95 in 10.0 mi Calm Calm - N/A   Scattered Clouds
6:55 AM 34.0 °F - 28.9 °F 82% 29.95 in 10.0 mi Calm Calm - N/A   Scattered Clouds
7:55 AM 37.0 °F - 30.0 °F 76% 29.94 in 10.0 mi Calm Calm - N/A   Scattered Clouds
8:55 AM 44.1 °F - 30.9 °F 60% 29.92 in 10.0 mi Calm Calm - N/A   Scattered Clouds
9:55 AM 52.0 °F - 28.9 °F 41% 29.89 in 10.0 mi NNE 3.5 mph - N/A   Mostly Cloudy
10:46 AM 59.0 °F - 26.6 °F 29% 29.90 in 10.0 mi SSW 21.9 mph 29.9 mph N/A   Clear
10:55 AM 59.0 °F - 25.0 °F 27% 29.83 in 10.0 mi SSW 25.3 mph 32.2 mph N/A   Mostly Cloudy
11:55 AM 61.0 °F - 24.1 °F 24% 29.81 in 10.0 mi SSW 26.5 mph 36.8 mph N/A   Mostly Cloudy
12:55 PM 61.0 °F - 21.9 °F 22% 29.77 in 10.0 mi SSW 26.5 mph 34.5 mph N/A   Mostly Cloudy
1:55 PM 61.0 °F - 24.1 °F 24% 29.75 in 10.0 mi SSW 25.3 mph 32.2 mph N/A   Mostly Cloudy
2:55 PM 59.0 °F - 24.1 °F 26% 29.76 in 10.0 mi SSW 21.9 mph - N/A   Mostly Cloudy
3:55 PM 57.0 °F - 26.1 °F 30% 29.73 in 10.0 mi SW 21.9 mph 31.1 mph N/A   Mostly Cloudy
4:55 PM 53.1 °F - 25.0 °F 34% 29.75 in 10.0 mi SSW 19.6 mph - N/A   Scattered Clouds
5:55 PM 51.1 °F - 26.1 °F 38% 29.78 in 10.0 mi South 10.4 mph - N/A   Scattered Clouds
6:55 PM 48.9 °F - 25.0 °F 39% 29.78 in 10.0 mi South 11.5 mph - N/A   Scattered Clouds
7:55 PM 48.0 °F - 25.0 °F 41% 29.73 in 10.0 mi SE 5.8 mph 23.0 mph N/A   Scattered Clouds
8:55 PM 46.9 °F - 24.1 °F 41% 29.71 in 10.0 mi SE 6.9 mph - N/A   Scattered Clouds
9:55 PM 46.9 °F - 21.9 °F 37% 29.68 in 10.0 mi South 16.1 mph - N/A   Scattered Clouds
10:55 PM 46.0 °F 39.3 °F 23.0 °F 40% 29.64 in 10.0 mi South 16.1 mph 23.0 mph N/A   Scattered Clouds
11:55 PM 48.9 °F - 26.1 °F 41% 29.61 in 10.0 mi SSW 34.5 mph 47.2 mph N/A   Mostly Cloudy